Terminal Aerodrome Forecast
Issued by NWS Pueblo, CO

Home | Current Version | Previous Version | Text Only | Print | Product List | Glossary On
Versions: 1 2 3 4 5 6 7 8 9 10 11 12 13 14 15 16 17 18 19 20 21 22 23 24 25
000
FTUS45 KPUB 272323
TAFCOS
TAF
KCOS 272323Z 2800/2824 15009KT P6SM SCT200
     FM280200 30007KT P6SM SCT200
     FM280700 35007KT P6SM BKN200
     FM281800 33012G22KT P6SM SCT200=

USA.gov is the U.S. government's official web portal to all federal, state and local government web resources and services.